sat.trackr.live / text

‹ back to catalog

STARLINK-32942

NORAD 63120 · 2025-039S

PAYLOAD ACTIVE UNKNOWN

§ Identity

Operator
Country
US
Launch date
2025-02-27
Launch site
AFETR
Launch vehicle
Mass (kg)
RCS (m²)

Purposes: comms

External: N2YO · Heavens-Above · Gunter

§ Orbital elements

Epoch: 2026-05-24T20:07:16.828608Z

Period
94.27 min
Inclination
43.0016°
Eccentricity
0.0001776
Mean motion
15.27588808 rev/d
Perigee alt
481.8 km
Apogee alt
484.2 km
Semi-major
6,861.2 km
B*
5.6366e-4
RAAN
302.6543°
Arg perigee
271.6801°
Mean anomaly
88.3847°
Rev number
6,971

§ Raw data

STARLINK-329421 63120U 25039S   26144.83838922  .00015285  00000+0  56366-3 0  99902 63120  43.0016 302.6543 0001776 271.6801  88.3847 15.27588808 69710

JSON: /api/v1/satellites/63120 · /tle

For live sub-satellite position, see the globe view (requires WebGL).

§ Visibility from observer

Set your observer location to see the next 7 days of passes ≥ 10°. The values pass through the URL so the page stays shareable.

No JS? Fill the form by hand. The geolocation button needs JavaScript.